Humidity-temperature Sensor

Selected Measurement Type: Relative Humidity

 
Relative Humidity [%]     6 entries per hour
Showing data from 11/4/2014 (00:00:00 Z) to 11/3/2014 (00:01:00 Z)
Previous Next [ Day | 3-Days | 7-Days ]
First Last
Prev [ Day | 3-Days | 7-Days ] Next
First Last

Start Time:     :
End Time:     :     
Time (in GMT) :00 :50 :40 :30 :20 :10
Previous Next [ Day | 3-Days | 7-Days ]
First Last
Prev [ Day | 3-Days | 7-Days ] Next
First Last


123 => good data
MM => data is determined as missing
-- => data not received/configured
Back to Top Back to Top
11/4/2014 00:00 to 23:10 72.40 73.14 73.25 71.87 71.83 71.34
11/3/2014 23:00 to 22:10 72.61 73.61 73.97 74.05 74.99 75.18
11/3/2014 22:00 to 21:10 76.47 76.26 75.41 74.08 74.33 73.61
11/3/2014 21:00 to 20:10 72.93 72.63 72.57 73.29 74.31 73.61
11/3/2014 20:00 to 19:10 73.31 73.63 73.21 73.19 73.67 73.27
11/3/2014 19:00 to 18:10 73.55 73.44 73.61 73.50 73.57 74.37
11/3/2014 18:00 to 17:10 73.61 73.61 73.59 72.93 73.25 73.12
11/3/2014 17:00 to 16:10 72.80 72.15 72.13 71.51 71.79 71.74
11/3/2014 16:00 to 15:10 70.75 71.96 71.51 72.53 71.96 73.42
11/3/2014 15:00 to 14:10 73.06 72.61 71.96 73.44 72.72 72.85
11/3/2014 14:00 to 13:10 72.87 73.42 73.67 73.74 73.97 74.12
11/3/2014 13:00 to 12:10 74.01 73.29 73.99 73.86 73.46 73.82
11/3/2014 12:00 to 11:10 74.01 73.67 74.08 74.58 74.63 74.67
11/3/2014 11:00 to 10:10 75.26 75.24 73.06 74.10 74.25 74.99
11/3/2014 10:00 to 9:10 75.71 75.09 75.94 75.05 75.84 74.99
11/3/2014 09:00 to 8:10 74.80 75.03 75.14 76.11 74.80 76.28
11/3/2014 08:00 to 7:10 75.20 74.44 74.48 74.18 74.58 75.48
11/3/2014 07:00 to 6:10 75.64 74.61 73.55 73.14 72.74 72.59
11/3/2014 06:00 to 5:10 74.35 74.39 74.73 73.97 73.69 73.23
11/3/2014 05:00 to 4:10 73.67 74.03 73.99 73.67 73.61 73.29
11/3/2014 04:00 to 3:10 72.36 73.14 73.06 73.04 73.46 73.29
11/3/2014 03:00 to 2:10 74.01 74.22 75.54 77.45 75.11 75.28
11/3/2014 02:00 to 1:10 74.61 74.16 73.59 71.51 72.13 71.72
11/3/2014 01:00 to 0:10 71.66 72.83 73.67 72.19 73.04 73.52